752  
ASUS43 KLOT 170109  
RWRIL  
 
ILLINOIS REGIONAL WEATHER ROUNDUP  
NATIONAL WEATHER SERVICE CHICAGO/ROMEOVILLE IL  
800 PM CDT MON OCT 16 2017  
 
NOTE: "FAIR" INDICATES FEW OR NO CLOUDS BELOW 12,000 FEET WITH NO  
SIGNIFICANT WEATHER AND/OR S TO VISIBILITY
.  
 
* THESE STATIONS ARE NOT UNDER NWS QUALITY CONTROL. THEY ALSO MAY NOT  
REPORT WEATHER SUCH AS PRECIPITATION OR FOG.
 
 
ILZ001-002-007-009-015-016-024-170200-  
NORTHWEST ILLINOIS  
 
CITY SKY/WX TMP DP RH WIND PRES REMARKS
 
MOLINE CLEAR 52 38 58 S7 30.20F  
STERLING* CLEAR 52 40 63 CALM N/A  
SAVANNA* CLEAR 48 41 75 S5 30.19S  

 
 
ILZ003-004-008-010-011-017-018-170200-  
NORTH CENTRAL ILLINOIS  
 
CITY SKY/WX TMP DP RH WIND PRES REMARKS
 
ROCKFORD CLEAR 50 39 66 S5 30.22R  
FREEPORT* CLEAR 47 37 69 S7 30.21S  
ROCHELLE* CLEAR 45 40 84 S6 30.22S  
DE KALB* CLEAR 50 37 59 SW6 30.22F  
PERU* CLEAR 52 37 58 SW6 30.24S  

 
 
ILZ005-006-012>014-019>023-170200-  
NORTHEAST ILLINOIS  
 
CITY SKY/WX TMP DP RH WIND PRES REMARKS
 
CHICAGO-OHARE CLEAR 55 37 50 SW5 30.21S  
CHICAGO-MIDWAY CLEAR 57 37 47 SW5 30.22S  
AURORA CLEAR 47 41 80 S3 30.22F  
LANSING* CLEAR 48 43 82 CALM 30.24S  
JOLIET* CLEAR 47 43 85 CALM 30.23F  
WAUKEGAN CLEAR 45 41 86 CALM 30.20S  
DUPAGE AIRPORT CLEAR 50 39 66 SW6 30.21F  
KANKAKEE* CLEAR 52 38 58 SW6 30.26R  
WHEELING CLEAR 54 41 61 S3 30.22S  
MORRIS* CLEAR 50 38 61 S3 30.23S  
ROMEOVILLE* CLEAR 52 38 59 SW3 30.23F  
NORTHERLY ISL N/A 58 35 42 SW1 N/A  

 
 
LMZ740>746-170200-  
SOUTHERN LAKE MICHIGAN  
 
STATION/POSITION SKY/WX TEMP WIND PRES VSBY WAVE
 
AIR SEA DIR/SP/G HT/PER  
(F) (DEG/KT/KT) (MB) (MI) (FT/S)  
SOUTHERN BUOY 60 62 260/ 14/ 16 1022.8F 1/ 3  
WILMETTE HARBOR 58 58 200/ 6/ 8 N/A 1  
HARRISON CRIB 62 230/ 9/ 12 N/A  
BURNHAM HARBOR 58 190/ 3/ 5 N/A  
CALUMET HARBOR 57 200/ 3/ 4 1022.8R  
BURNS HARBOR 58 200/ 6/ 8 1024.0S  
MICHIGAN CITY 57 180/ 8/ 9 N/A  
MICHIGAN CITY 6N 58 58 200/ 4/ 6 N/A 1/ 6  
ST. JOSEPH 57 58 180/ 8/ 10 1023.9S 2/ 5  

 
 
ILZ025>027-034>036-040-047-049-050-058-095>099-170200-  
WEST-CENTRAL ILLINOIS  
 
CITY SKY/WX TMP DP RH WIND PRES REMARKS
 
QUINCY CLEAR 56 36 47 S6 30.25R  
GALESBURG* CLEAR 46 41 82 S3 30.25R  
MACOMB* CLEAR 48 40 74 S5 30.27R  
JACKSONVILLE* CLEAR 50 39 64 CALM 30.26S  
PITTSFIELD* CLEAR 51 42 71 CALM 30.28R  

 
 
ILZ028>032-037-038-041>044-048-051>054-059>061-170200-  
CENTRAL ILLINOIS  
 
CITY SKY/WX TMP DP RH WIND PRES REMARKS
 
PONTIAC CLEAR 49 41 73 S3 30.25S  
BLOOMINGTON CLEAR 51 38 60 SW5 30.27S  
DECATUR CLEAR 52 39 61 SW5 30.27S  
PEORIA CLEAR 51 41 68 CALM 30.25R  
LACON* CLEAR 47 41 79 S3 30.23F  
LINCOLN* CLEAR 52 40 64 CALM 30.27R  
SPRINGFIELD CLEAR 49 42 77 CALM 30.27S  
TAYLORVILLE CLEAR 48 40 75 S6 30.28S  

 
 
ILZ033-039-045-046-055>057-062-063-170200-  
EAST-CENTRAL ILLINOIS  
 
CITY SKY/WX TMP DP RH WIND PRES REMARKS
 
CHAMPAIGN CLEAR 47 38 71 S8 30.27S  
DANVILLE* CLEAR 50 37 62 CALM 30.25S  
RANTOUL* CLEAR 54 40 58 SW5 30.26S  
MATTOON CLEAR 53 43 68 S6 30.28R  
PARIS* CLEAR 45 39 81 S3 30.30S  

 
 
ILZ079-100>102-170200-  
SOUTHWEST ILLINOIS  
 
CITY SKY/WX TMP DP RH WIND PRES REMARKS
 
ALTON CLEAR 52 43 71 CALM 30.29S  
BELLEVILLE CLEAR 51 44 78 CALM 30.28S  
CAHOKIA* CLEAR 54 40 59 S5 30.29S  
SPARTA* CLEAR 50 43 78 CALM 30.32R  

 
 
ILZ064>066-069>071-074>076-080>082-084>086-088>090-092>094-170200-  
SOUTH-CENTRAL ILLINOIS  
 
CITY SKY/WX TMP DP RH WIND PRES REMARKS
 
CARBONDALE CLEAR 47 44 90 CALM 30.32R  
CAIRO* CLEAR 47 42 84 CALM 30.32R  
EFFINGHAM* CLEAR 49 43 79 CALM 30.32R  
MARION CLEAR 49 43 80 CALM 30.33R  
MT. VERNON CLEAR 47 43 86 CALM 30.32R  
CENTRALIA* CLEAR 48 42 77 CALM 30.30S  
METROPOLIS* CLEAR 48 42 78 CALM 30.33R  

 
 
ILZ067-068-072-073-078-083-087-091-170200-  
SOUTHEAST ILLINOIS  
 
CITY SKY/WX TMP DP RH WIND PRES REMARKS
 
LAWRENCEVILLE CLEAR N/A N/A N/A S3 30.31S  
FLORA* CLEAR 50 44 81 CALM 30.31S  
FAIRFIELD* CLEAR 50 44 80 CALM 30.31R  
HARRISBURG* CLEAR 48 41 77 CALM 30.32S  
ROBINSON* CLEAR 45 41 86 CALM 30.32S  
CARMI* CLEAR 47 41 78 CALM 30.32R  

 
 
ABBREVIATIONS USED IN REMARKS  
TC - TEMPERATURE IN CELSIUS  
WCI - WIND CHILL INDEX  
HX - HEAT INDEX  
VSB - VISIBILITY  

 
 
 
 
CLICK HERE TO GO TO PREVIOUS BULLETINS.

The Nexlab IL Page Main Text Page